NW Arkansas Airport, AR

2:50 PM CDT on May 24, 2017 (GMT -0500)
Northwest Arkansas Regional

Weather History for KXNA - April, 2013

Change the Weather History Date:

Wednesday, April 3, 2013

  Actual Average (KVBT) Record (KVBT)
Temperature  
Mean Temperature 42 °F -  
Max Temperature 48 °F 65 °F 82 °F (2011)
Min Temperature 36 °F 41 °F 21 °F (1987)
Degree Days  
Heating Degree Days 23    
Moisture  
Dew Point 29 °F    
Average Humidity 63    
Maximum Humidity 82    
Minimum Humidity 44    
Precipitation  
Precipitation 0.07 in - - ()
Sea Level Pressure  
Sea Level Pressure 30.20 in    
Wind  
Wind Speed 11 mph (ENE)    
Max Wind Speed 22 mph    
Max Gust Speed 31 mph    
Visibility 10 miles    
Events Rain    
Averages and records for this station are not official NWS values.
T = Trace of Precipitation, MM = Missing Value Source: NWS Daily Summary

Daily Weather History Graph

Daily Weather History Graph

Search for Another Location

Airport or City:

Trip Planner

Search our weather history database for the weather conditions in past years. The results will help you decide how hot, cold, wet, or windy it might be!

Date:

Astronomy

Apr. 03, 2013 Rise Set
Actual Time 7:00 AM CDT 7:41 PM CDT
Civil Twilight 6:34 AM CDT 8:07 PM CDT
Nautical Twilight 6:03 AM CDT 8:37 PM CDT
Astronomical Twilight 5:32 AM CDT 9:09 PM CDT
Moon 2:30 AM CDT (4/3) 1:05 PM CDT (4/3)
Length of Visible Light 13h 33m
Length of Day
12h 41m
Last Quarter, 44% of the Moon is Illuminated
Apr 3
Last Quarter
Apr 10
New
Apr 18
First Quarter
Apr 25
Full
May 2
Last Quarter

Hourly Weather History & Observations

Time (CDT) Temp. Windchill Dew Point Humidity Pressure Visibility Wind Dir Wind Speed Gust Speed Precip Events Conditions
12:53 AM 37.0 °F 29.8 °F 32.0 °F 82% 30.21 in 10.0 mi ENE 10.4 mph - N/A   Overcast
1:53 AM 36.0 °F 29.0 °F 30.0 °F 79% 30.20 in 10.0 mi East 9.2 mph - N/A   Mostly Cloudy
2:53 AM 36.0 °F 28.5 °F 30.9 °F 82% 30.19 in 10.0 mi ENE 10.4 mph - N/A   Overcast
3:53 AM 36.0 °F 28.5 °F 30.9 °F 82% 30.17 in 10.0 mi ENE 10.4 mph - N/A   Overcast
4:53 AM 37.0 °F 29.8 °F 30.9 °F 79% 30.18 in 10.0 mi ENE 10.4 mph 21.9 mph N/A   Overcast
5:53 AM 37.0 °F 28.9 °F 28.9 °F 73% 30.22 in 10.0 mi East 12.7 mph 20.7 mph N/A   Overcast
6:53 AM 37.0 °F 30.4 °F 28.9 °F 73% 30.23 in 10.0 mi East 9.2 mph - N/A   Overcast
7:53 AM 37.0 °F 28.5 °F 28.0 °F 70% 30.24 in 10.0 mi East 13.8 mph - N/A   Overcast
8:53 AM 37.9 °F 29.6 °F 26.1 °F 62% 30.25 in 10.0 mi East 13.8 mph 21.9 mph N/A   Overcast
9:53 AM 39.0 °F 30.6 °F 26.1 °F 60% 30.25 in 10.0 mi East 15.0 mph 24.2 mph N/A   Overcast
10:53 AM 39.9 °F 30.0 °F 25.0 °F 55% 30.23 in 10.0 mi East 21.9 mph 31.1 mph N/A   Overcast
11:53 AM 43.0 °F 35.4 °F 27.0 °F 53% 30.24 in 10.0 mi East 16.1 mph - N/A   Overcast
12:53 PM 46.0 °F 39.6 °F 28.0 °F 50% 30.22 in 10.0 mi ENE 15.0 mph - N/A   Overcast
1:53 PM 46.0 °F 40.2 °F 28.0 °F 50% 30.22 in 10.0 mi ENE 12.7 mph - N/A   Overcast
2:53 PM 46.9 °F - 27.0 °F 46% 30.19 in 10.0 mi ENE 11.5 mph 21.9 mph N/A   Overcast
3:53 PM 46.9 °F - 28.0 °F 48% 30.19 in 10.0 mi ENE 12.7 mph - N/A   Overcast
4:53 PM 46.9 °F - 28.0 °F 48% 30.18 in 10.0 mi ENE 10.4 mph - N/A   Overcast
5:53 PM 48.0 °F - 27.0 °F 44% 30.18 in 10.0 mi ENE 10.4 mph - N/A   Overcast
6:53 PM 46.9 °F - 28.0 °F 48% 30.19 in 10.0 mi ENE 8.1 mph - N/A   Overcast
7:53 PM 46.0 °F 43.9 °F 30.0 °F 54% 30.18 in 10.0 mi NNE 4.6 mph - N/A   Overcast
8:53 PM 45.0 °F 43.5 °F 33.1 °F 63% 30.18 in 10.0 mi NNE 3.5 mph - N/A   Overcast
9:53 PM 44.1 °F 40.8 °F 32.0 °F 63% 30.18 in 10.0 mi East 5.8 mph - 0.01 in Rain Light Rain
10:53 PM 41.0 °F 39.0 °F 32.0 °F 70% 30.17 in 10.0 mi North 3.5 mph - 0.06 in   Overcast
11:53 PM 42.1 °F - 34.0 °F 73% 30.17 in 10.0 mi Calm Calm - N/A   Overcast